EW3286 Weather Reports


Display with metric or nautical units.
time (UTC)temp
F
wind
direction
speed
MPH
gust
MPH
rain 1hr
in
rain 24hr
in
rain mn
in
humidity
%
barometer
mb
20260831110054 69 180 0.0 0.0 0.00 0.00 0.00 94 1006.6
20260831104542 69 167 0.0 0.0 0.00 0.00 0.00 94 1006.6
20260831103040 70 171 0.0 0.0 0.00 0.00 0.00 94 1006.2
20260831101543 70 174 0.0 0.0 0.00 0.00 0.00 94 1006.3
20260831100034 70 159 0.0 0.0 0.00 0.00 0.00 94 1006.2
20260831094539 69 155 0.0 0.0 0.00 0.00 0.00 93 1006.1
20260831093032 70 155 0.0 0.0 0.00 0.00 0.00 93 1006.1
20260831091538 70 155 0.0 0.0 0.00 0.00 0.00 93 1006.0
20260831090029 70 155 0.0 0.0 0.00 0.00 0.00 93 1006.2
20260831084526 70 156 0.0 0.0 0.00 0.00 0.00 93 1006.1
20260831083025 71 156 0.0 0.0 0.00 0.00 0.00 93 1006.0
20260831081523 71 157 0.0 0.0 0.00 0.00 0.00 93 1005.8
20260831080025 71 136 0.0 0.0 0.00 0.00 0.00 93 1005.9
20260831074622 71 139 0.0 0.0 0.00 0.00 0.00 92 1005.7
20260831073017 72 142 0.0 0.0 0.00 0.00 0.00 92 1005.7
20260831071516 72 143 0.0 0.0 0.00 0.00 0.00 92 1005.6
20260831070015 72 114 0.0 0.0 0.00 0.00 0.00 92 1005.8
20260831064513 72 141 0.0 0.0 0.00 0.00 0.00 92 1005.9
20260831063011 73 153 0.0 0.0 0.00 0.00 0.00 92 1005.8
20260831061516 73 153 0.0 0.0 0.00 0.00 0.00 92 1005.7
20260831060010 73 93 0.0 0.0 0.00 0.00 0.00 92 1005.9
20260831054510 73 140 0.0 0.0 0.00 0.00 0.00 91 1005.8
20260831053004 73 81 0.0 0.0 0.00 0.00 0.00 92 1005.8
20260831051559 73 101 0.0 0.0 0.00 0.00 0.00 91 1006.0
20260831050056 73 94 0.0 0.0 0.00 0.00 0.00 91 1005.9
20260831044609 74 74 0.0 0.0 0.00 0.00 0.00 91 1005.9
20260831043050 74 153 0.0 0.0 0.00 0.00 0.00 90 1005.9
20260831041610 74 94 0.0 0.0 0.00 0.00 0.00 90 1005.8
20260831040050 74 86 0.0 0.0 0.00 0.00 0.00 90 1005.9
20260831034550 75 101 0.0 0.0 0.00 0.00 0.00 89 1005.7
20260831033049 75 67 0.0 0.0 0.00 0.00 0.00 89 1005.7
20260831031547 75 91 0.0 0.0 0.00 0.00 0.00 88 1005.6
20260831030052 75 89 0.0 0.0 0.00 0.00 0.00 88 1005.6
20260831024547 75 87 0.0 0.0 0.00 0.00 0.00 88 1005.7
20260831023046 75 90 0.0 0.0 0.00 0.00 0.00 88 1005.5
20260831021546 75 80 0.0 0.0 0.00 0.00 0.00 87 1005.6
20260831020046 76 74 0.0 0.0 0.00 0.00 0.00 86 1005.4
20260831014545 76 74 0.0 0.0 0.00 0.00 0.00 84 1005.2
20260831013050 77 71 0.0 0.0 0.00 0.00 0.00 82 1004.9
20260831011548 78 80 0.0 0.0 0.00 0.00 0.00 81 1005.0
20260831010043 80 80 0.0 0.0 0.00 0.00 0.00 79 1005.0
20260831004543 81 88 0.0 0.0 0.00 0.00 0.00 76 1005.1
20260831003043 82 90 0.0 0.0 0.00 0.00 0.00 73 1004.9
20260831001542 83 96 0.0 0.0 0.00 0.00 0.00 71 1004.8
20260831000042 84 167 0.0 0.0 0.00 0.00 0.00 69 1005.0
20260830234546 85 144 0.0 0.0 0.00 0.00 0.00 68 1005.0
20260830233040 85 86 0.0 0.0 0.00 0.00 0.00 67 1004.7
20260830231553 85 74 0.0 0.0 0.00 0.00 0.00 69 1004.5
20260830230046 85 90 0.0 0.0 0.00 0.00 0.00 67 1004.4
20260830224549 86 94 0.0 0.0 0.00 0.00 0.00 64 1004.3
20260830223039 86 90 0.0 0.0 0.00 0.00 0.00 67 1004.2
20260830221541 86 58 0.0 0.0 0.00 0.00 0.00 62 1004.2
20260830220035 88 92 0.0 0.0 0.00 0.00 0.00 63 1004.0
20260830214534 87 74 0.0 0.0 0.00 0.00 0.00 62 1003.9
20260830213032 88 90 0.0 0.0 0.00 0.00 0.00 63 1003.8
20260830211529 88 74 0.0 0.0 0.00 0.00 0.00 64 1003.7
20260830210028 88 105 0.0 0.0 0.00 0.00 0.00 63 1003.8
20260830204527 89 76 0.0 0.0 0.00 0.00 0.00 63 1004.0
20260830203033 89 103 0.0 0.0 0.00 0.00 0.00 64 1004.1
20260830201534 89 114 0.0 0.0 0.00 0.00 0.00 63 1004.2
20260830200016 89 66 0.0 0.0 0.00 0.00 0.00 61 1004.2
20260830194512 89 76 0.0 0.0 0.00 0.00 0.00 61 1004.5
20260830193011 89 69 0.0 0.0 0.00 0.00 0.00 61 1004.3
20260830191512 90 82 0.0 0.0 0.00 0.00 0.00 59 1004.4
20260830190002 89 101 0.0 0.0 0.00 0.00 0.00 59 1004.3
20260830184559 89 153 0.0 0.0 0.00 0.00 0.00 59 1004.2
20260830183057 88 85 0.0 0.0 0.00 0.00 0.00 58 1004.4
20260830181552 88 74 0.0 0.0 0.00 0.00 0.00 60 1004.6
20260830180057 88 65 0.0 0.0 0.00 0.00 0.00 62 1004.7
20260830174554 87 74 0.0 0.0 0.00 0.00 0.00 66 1004.8
20260830173054 87 103 0.0 0.0 0.00 0.00 0.00 66 1004.9
20260830171538 86 130 0.0 0.0 0.00 0.00 0.00 70 1005.0
20260830170035 85 128 0.0 0.0 0.00 0.00 0.00 72 1005.2
20260830164534 84 92 0.0 0.0 0.00 0.00 0.00 73 1005.4
20260830163034 84 70 0.0 0.0 0.00 0.00 0.00 74 1005.6
20260830161528 83 88 0.0 0.0 0.00 0.00 0.00 75 1005.9
20260830160024 83 101 0.0 0.0 0.00 0.00 0.00 76 1005.6
20260830154520 82 72 0.0 0.0 0.00 0.00 0.00 77 1005.6
20260830153015 80 51 0.0 0.0 0.00 0.00 0.00 77 1005.2
20260830151513 79 49 0.0 0.0 0.00 0.00 0.00 78 1005.5
20260830150021 78 76 0.0 0.0 0.00 0.00 0.00 79 1005.5
20260830144505 76 75 0.0 0.0 0.00 0.00 0.00 81 1005.4
20260830143004 77 142 0.0 0.0 0.00 0.00 0.00 80 1005.6
20260830141504 76 103 0.0 0.0 0.00 0.00 0.00 83 1005.3
20260830134554 74 255 0.0 0.0 0.00 0.00 0.00 89 1005.6
20260830133103 72 256 0.0 0.0 0.00 0.00 0.00 92 1005.6
20260830131546 71 98 0.0 0.0 0.00 0.00 0.00 94 1005.2
20260830130043 70 98 0.0 0.0 0.00 0.00 0.00 94 1005.2
20260830124540 69 90 0.0 0.0 0.00 0.00 0.00 95 1005.2
20260830123038 69 94 0.0 0.0 0.00 0.00 0.00 96 1005.1
20260830121538 68 83 0.0 0.0 0.00 0.00 0.00 96 1004.9
20260830120032 68 92 0.0 0.0 0.00 0.00 0.00 96 1005.1
20260830114551 68 81 0.0 0.0 0.00 0.00 0.00 95 1005.2
20260830113029 68 43 0.0 0.0 0.00 0.00 0.00 96 1005.2
20260830111528 68 42 0.0 0.0 0.00 0.00 0.00 95 1005.2